When you browse on this site, cookies collect data to enhance your experience and personalize the content and advertising you see.
Visit our Privacy Policy to learn more. By continuing to use the site, you agree to this use of cookies and data.
  • In United Kingdom
  • List of Countries
  • For 7 days
  • Water Temperature
  • Weather Map
  • Weather Widgets
  • user-avatar
    Login

    Hourly Weather Orsha

    Today, 22 September, Sunday

    Time Temperature Precipitation Wind Pressure Humidity
    00:00 +10°C° 0.1 mm 7 mps 739 mmHg 93%
    01:00 +10°C° 0.1 mm 7 mps 739 mmHg 91%
    02:00 +10°C° 0 mm 8 mps 740 mmHg 91%
    03:00 +9°C° 0.1 mm 7 mps 740 mmHg 90%
    04:00 +9°C° 0.1 mm 7 mps 740 mmHg 90%
    05:00 +9°C° 0.1 mm 7 mps 740 mmHg 90%
    06:00 +8°C° 0.2 mm 6 mps 740 mmHg 89%
    07:00 +8°C° 0.2 mm 6 mps 740 mmHg 89%
    08:00 +8°C° 0 mm 5 mps 740 mmHg 90%
    09:00 +8°C° 0.3 mm 6 mps 740 mmHg 88%
    10:00 +8°C° 0.3 mm 6 mps 741 mmHg 85%
    11:00 +8°C° 0.3 mm 7 mps 741 mmHg 82%
    12:00 +8°C° 0 mm 6 mps 741 mmHg 78%
    13:00 +9°C° 0 mm 6 mps 741 mmHg 74%
    14:00 +10°C° 0 mm 6 mps 742 mmHg 70%
    15:00 +9°C° 0.7 mm 5 mps 742 mmHg 75%
    16:00 +8°C° 0.7 mm 5 mps 742 mmHg 79%
    17:00 +6°C° 0.7 mm 4 mps 742 mmHg 84%
    18:00 +6°C° 0.4 mm 4 mps 743 mmHg 84%
    19:00 +5°C° 0.4 mm 4 mps 743 mmHg 85%
    20:00 +5°C° 0.4 mm 3 mps 744 mmHg 85%
    21:00 +4°C° 0 mm 3 mps 744 mmHg 87%
    22:00 +3°C° 0 mm 3 mps 745 mmHg 88%
    23:00 +2°C° 0 mm 3 mps 745 mmHg 90%

    Tomorrow, 23 September, Monday

    Time Temperature Precipitation Wind Pressure Humidity
    00:00 +1°C° 0 mm 3 mps 746 mmHg 90%
    01:00 +1°C° 0 mm 3 mps 746 mmHg 91%
    02:00 +1°C° 0 mm 3 mps 747 mmHg 92%
    03:00 0°C° 0 mm 3 mps 747 mmHg 92%
    04:00 0°C° 0 mm 3 mps 747 mmHg 93%
    05:00 -1°C° 0 mm 3 mps 748 mmHg 94%
    06:00 0°C° 0 mm 3 mps 748 mmHg 90%
    07:00 +1°C° 0 mm 3 mps 749 mmHg 86%
    08:00 +2°C° 0 mm 3 mps 749 mmHg 82%
    09:00 +3°C° 0 mm 3 mps 749 mmHg 75%
    10:00 +5°C° 0 mm 3 mps 749 mmHg 68%
    11:00 +7°C° 0 mm 3 mps 750 mmHg 61%
    12:00 +8°C° 0 mm 3 mps 749 mmHg 59%
    13:00 +7°C° 0 mm 4 mps 749 mmHg 57%
    14:00 +8°C° 0 mm 4 mps 749 mmHg 55%
    15:00 +8°C° 0 mm 3 mps 749 mmHg 60%
    16:00 +8°C° 0 mm 3 mps 749 mmHg 64%
    17:00 +7°C° 0 mm 3 mps 749 mmHg 68%
    18:00 +6°C° 0 mm 2 mps 749 mmHg 71%
    19:00 +5°C° 0 mm 2 mps 749 mmHg 74%
    20:00 +3°C° 0 mm 2 mps 749 mmHg 76%
    21:00 +3°C° 0 mm 2 mps 749 mmHg 75%
    22:00 +4°C° 0 mm 1 mps 749 mmHg 74%
    23:00 +4°C° 0 mm 1 mps 749 mmHg 73%

    Day after tomorrow, 24 September, Tuesday

    Time Temperature Precipitation Wind Pressure Humidity
    00:00 +4°C° 0 mm 1 mps 749 mmHg 74%
    01:00 +3°C° 0 mm 2 mps 749 mmHg 75%
    02:00 +3°C° 0 mm 2 mps 749 mmHg 77%
    03:00 +2°C° 0 mm 2 mps 749 mmHg 80%
    04:00 +2°C° 0 mm 2 mps 749 mmHg 83%
    05:00 +2°C° 0 mm 2 mps 749 mmHg 86%
    06:00 +2°C° 0 mm 2 mps 749 mmHg 82%
    07:00 +3°C° 0 mm 2 mps 749 mmHg 79%
    08:00 +4°C° 0 mm 2 mps 749 mmHg 76%
    09:00 +6°C° 0 mm 2 mps 749 mmHg 70%
    10:00 +7°C° 0 mm 2 mps 749 mmHg 65%
    11:00 +8°C° 0 mm 3 mps 749 mmHg 60%
    12:00 +9°C° 0 mm 3 mps 748 mmHg 58%
    13:00 +9°C° 0 mm 2 mps 748 mmHg 57%
    14:00 +9°C° 0 mm 2 mps 748 mmHg 55%
    15:00 +9°C° 0 mm 2 mps 748 mmHg 59%
    16:00 +9°C° 0 mm 1 mps 748 mmHg 63%
    17:00 +9°C° 0 mm 1 mps 747 mmHg 67%
    18:00 +7°C° 0 mm 1 mps 747 mmHg 70%
    19:00 +5°C° 0 mm 0 mps 747 mmHg 73%
    20:00 +4°C° 0 mm 0 mps 747 mmHg 77%
    21:00 +3°C° 0 mm 0 mps 747 mmHg 78%
    22:00 +4°C° 0 mm 1 mps 747 mmHg 78%
    23:00 +4°C° 0 mm 1 mps 747 mmHg 79%

    25 September, Wednesday

    Time Temperature Precipitation Wind Pressure Humidity
    00:00 +4°C° 0 mm 1 mps 747 mmHg 80%
    01:00 +3°C° 0 mm 1 mps 747 mmHg 81%
    02:00 +3°C° 0 mm 1 mps 747 mmHg 82%
    03:00 +3°C° 0 mm 1 mps 747 mmHg 82%
    04:00 +2°C° 0 mm 1 mps 747 mmHg 83%
    05:00 +1°C° 0 mm 2 mps 747 mmHg 83%
    06:00 +2°C° 0 mm 2 mps 747 mmHg 80%
    07:00 +3°C° 0 mm 2 mps 747 mmHg 76%
    08:00 +4°C° 0 mm 2 mps 747 mmHg 73%
    09:00 +6°C° 0 mm 2 mps 747 mmHg 68%
    10:00 +7°C° 0 mm 3 mps 747 mmHg 63%
    11:00 +9°C° 0 mm 3 mps 747 mmHg 58%
    12:00 +10°C° 0 mm 3 mps 747 mmHg 57%
    13:00 +10°C° 0 mm 3 mps 747 mmHg 55%
    14:00 +10°C° 0 mm 3 mps 746 mmHg 54%
    15:00 +10°C° 0 mm 3 mps 746 mmHg 59%
    16:00 +9°C° 0 mm 3 mps 746 mmHg 64%
    17:00 +8°C° 0 mm 2 mps 746 mmHg 68%
    18:00 +7°C° 0 mm 3 mps 746 mmHg 70%
    19:00 +5°C° 0 mm 3 mps 746 mmHg 73%
    20:00 +4°C° 0 mm 3 mps 746 mmHg 75%
    21:00 +4°C° 0 mm 3 mps 746 mmHg 73%
    22:00 +4°C° 0 mm 4 mps 746 mmHg 72%
    23:00 +5°C° 0 mm 4 mps 746 mmHg 71%

    26 September, Thursday

    Time Temperature Precipitation Wind Pressure Humidity
    00:00 +5°C° 0 mm 4 mps 746 mmHg 70%
    01:00 +5°C° 0 mm 4 mps 746 mmHg 69%
    02:00 +5°C° 0 mm 4 mps 746 mmHg 68%
    03:00 +4°C° 0 mm 4 mps 745 mmHg 69%
    04:00 +4°C° 0 mm 4 mps 745 mmHg 71%
    05:00 +4°C° 0 mm 4 mps 745 mmHg 72%
    06:00 +3°C° 0.3 mm 5 mps 745 mmHg 75%
    07:00 +3°C° 0.3 mm 5 mps 745 mmHg 77%
    08:00 +3°C° 0.3 mm 5 mps 745 mmHg 80%
    09:00 +3°C° 0.3 mm 5 mps 745 mmHg 81%
    10:00 +5°C° 0.3 mm 5 mps 745 mmHg 83%
    11:00 +5°C° 0.3 mm 5 mps 745 mmHg 85%
    12:00 +4°C° 0.4 mm 6 mps 745 mmHg 87%
    13:00 +4°C° 0.4 mm 6 mps 744 mmHg 89%
    14:00 +5°C° 0.4 mm 6 mps 744 mmHg 91%
    15:00 +5°C° 1.2 mm 6 mps 744 mmHg 92%
    16:00 +6°C° 1.2 mm 5 mps 744 mmHg 93%
    17:00 +6°C° 1.2 mm 5 mps 744 mmHg 93%
    18:00 +6°C° 0.6 mm 5 mps 744 mmHg 94%
    19:00 +6°C° 0.6 mm 5 mps 743 mmHg 94%
    20:00 +6°C° 0.6 mm 5 mps 743 mmHg 94%
    21:00 +7°C° 0.5 mm 5 mps 744 mmHg 95%
    22:00 +7°C° 0.5 mm 5 mps 744 mmHg 95%
    23:00 +8°C° 0.5 mm 5 mps 744 mmHg 95%

    27 September, Friday

    Time Temperature Precipitation Wind Pressure Humidity
    00:00 +8°C° 0.6 mm 4 mps 744 mmHg 96%
    01:00 +8°C° 0.6 mm 4 mps 744 mmHg 96%
    02:00 +8°C° 0.6 mm 4 mps 744 mmHg 96%
    03:00 +9°C° 0.1 mm 3 mps 743 mmHg 97%
    04:00 +9°C° 0.1 mm 3 mps 743 mmHg 97%
    05:00 +9°C° 0.1 mm 3 mps 743 mmHg 98%
    06:00 +9°C° 0 mm 2 mps 743 mmHg 97%
    07:00 +9°C° 0 mm 2 mps 744 mmHg 97%
    08:00 +10°C° 0 mm 2 mps 744 mmHg 97%
    09:00 +10°C° 0 mm 2 mps 744 mmHg 96%
    10:00 +11°C° 0 mm 1 mps 744 mmHg 95%
    11:00 +12°C° 0 mm 1 mps 745 mmHg 94%
    12:00 +12°C° 0.1 mm 1 mps 745 mmHg 93%
    13:00 +12°C° 0.1 mm 1 mps 745 mmHg 93%
    14:00 +12°C° 0.1 mm 1 mps 745 mmHg 93%
    15:00 +12°C° 0.1 mm 1 mps 745 mmHg 94%
    16:00 +12°C° 0.1 mm 1 mps 745 mmHg 95%
    17:00 +12°C° 0.1 mm 1 mps 745 mmHg 96%
    18:00 +12°C° 0.1 mm 1 mps 745 mmHg 96%
    19:00 +11°C° 0.1 mm 1 mps 746 mmHg 97%
    20:00 +11°C° 0.1 mm 1 mps 746 mmHg 97%
    21:00 +11°C° 0 mm 1 mps 746 mmHg 97%
    22:00 +11°C° 0 mm 1 mps 746 mmHg 97%
    23:00 +11°C° 0 mm 1 mps 747 mmHg 98%
    Show more